This demonstration page uses our WeatherBlox Daily Observations layout. Learn more.

Left ArrowRight Arrow

38.80484, -77.04692

Hourly Observations for November 7, 2021

Temp ( °F °C ) Dew Point ( °F °C ) Humidity (%) Winds ( mph kmh ) Pressure ( in mb ) Visibility ( mi km ) Precip ( " mm )
12:52 am 00:52 Cloudy 45 7.2 37 2.8 74 74 NNE 6 9 30.26 1025 10 16 N/A
1:52 am 01:52 Mostly Cloudy 44 6.7 37 2.8 76 76 NNE 7 11 30.25 1024 10 16 N/A
1:52 am 01:52 Partly Cloudy 43 6.1 37 2.8 80 80 NE 6 9 30.24 1024 10 16 N/A
2:52 am 02:52 Mostly Cloudy 41 5 35 1.7 79 79 N 3 6 30.22 1024 10 16 N/A
3:52 am 03:52 Mostly Cloudy 41 5 35 1.7 79 79 NE 6 9 30.22 1024 10 16 N/A
4:52 am 04:52 Partly Cloudy 41 5 35 1.7 79 79 ENE 7 11 30.23 1024 10 16 N/A
5:52 am 05:52 Mostly Cloudy 39 3.9 33 0.6 79 79 NNW 7 11 30.22 1023 10 16 N/A
6:52 am 06:52 Mostly Cloudy 40 4.4 34 1.1 79 79 NE 5 7 30.23 1024 10 16 N/A
7:52 am 07:52 Mostly Cloudy 44 6.7 37 2.8 76 76 NNE 6 9 30.24 1024 10 16 N/A
8:52 am 08:52 Sunny 47 8.3 36 2.2 66 66 N 7 11 30.27 1025 10 16 N/A
8:58 am 08:58 Mostly Cloudy 48 8.9 36 2.2 63 63 N 8 13 30.27 1025 10 16 N/A
9:52 am 09:52 Mostly Cloudy 51 10.6 34 1.1 52 52 N 12 19 30.24 1024 10 16 N/A
10:52 am 10:52 Mostly Cloudy 54 12.2 32 undefined 43 43 N 12 19 30.22 1023 10 16 N/A
11:52 am 11:52 Mostly Cloudy 57 13.9 30 -1.1 36 36 N 13 20 30.19 1022 10 16 N/A
12:52 pm 12:52 Mostly Cloudy 58 14.4 31 -0.6 36 36 NNE 10 17 30.17 1022 10 16 N/A
1:52 pm 13:52 Mostly Cloudy 60 15.6 31 -0.6 33 33 N 9 15 30.15 1021 10 16 N/A
2:52 pm 14:52 Mostly Cloudy 58 14.4 31 -0.6 36 36 N 9 15 30.13 1020 9 14 N/A
3:52 pm 15:52 Mostly Cloudy 57 13.9 31 -0.6 37 37 NNW 13 20 30.14 1021 10 16 N/A
4:52 pm 16:52 Mostly Cloudy 54 12.2 30 -1.1 40 40 N 9 15 30.13 1020 10 16 N/A
5:52 pm 17:52 Mostly Cloudy 50 10 32 undefined 50 50 N 8 13 30.13 1020 10 16 N/A
6:52 pm 18:52 Mostly Cloudy 52 11.1 32 undefined 47 47 NNW 8 13 30.13 1020 10 16 N/A
7:52 pm 19:52 Mostly Cloudy 50 10 33 0.6 52 52 NNW 10 17 30.11 1020 10 16 N/A
8:52 pm 20:52 Mostly Cloudy 48 8.9 34 1.1 58 58 N 7 11 30.12 1020 10 16 N/A
9:52 pm 21:52 Mostly Cloudy 46 7.8 35 1.7 66 66 N 6 9 30.13 1020 10 16 N/A
10:52 pm 22:52 Mostly Cloudy 47 8.3 34 1.1 61 61 NNW 9 15 30.13 1020 10 16 N/A
11:52 pm 23:52 Mostly Cloudy 44 6.7 34 1.1 68 68 NNW 7 11 30.14 1021 10 16 N/A

Powered by AerisWeather